Orbital Elements at Epoch 2459000.5 (2020-May-31.0) TDB
Reference: JPL 17 (heliocentric ecliptic J2000)
Element | Value | Uncertainty (1-sigma) | Units |
e | .2671139613265877 | 4.3339e-08 | |
a | 2.191785643281681 | 8.6434e-09 | au |
q | 1.606329097725968 | 9.7816e-08 | au |
i | 5.673813329543702 | 6.4177e-06 | deg |
node | 219.9648866126803 | 4.0831e-05 | deg |
peri | 54.37738982061187 | 4.2934e-05 | deg |
M | 187.5448492503492 | 1.6796e-05 | deg |
tp | 2459568.265779333203 (2021-Dec-19.76577933) | 5.7645e-05 | TDB |
period | 1185.210645616897 3.24 | 7.0109e-06 1.919e-08 | d yr |
n | .3037434749099992 | 1.7967e-09 | deg/d |
Q | 2.777242188837394 | 1.0952e-08 | au |
|
| | Orbit Determination Parameters
Additional Information
|